Total_Precipitation_Accumulation
0.09 0.10 0.10 0.11 0.07 0.04 0.02 0.01 0.00 0.01 0.01 0.00 0.01 0.01 0.01 0.02 0.06 0.12 0.10 0.09 0.12 0.16 0.21 0.36 0.52 0.66 0.71 0.71 0.68 0.63 0.61 0.63 0.68 0.73 0.67 0.67 0.69 0.68 0.72 0.71 0.74 0.82 0.88 0.93 0.91 0.89 0.86 0.86 0.87
0.10 0.13 0.15 0.15 0.07 0.03 0.02 0.01 0.01 0.01 0.01 0.00 0.01 0.01 0.01 0.02 0.04 0.06 0.09 0.09 0.12 0.14 0.18 0.27 0.47 0.64 0.71 0.71 0.70 0.65 0.62 0.61 0.66 0.75 0.73 0.75 0.77 0.79 0.75 0.75 0.79 0.83 0.89 0.89 0.94 0.92 0.90 0.88 0.83
0.15 0.19 0.20 0.16 0.06 0.02 0.01 0.01 0.01 0.02 0.01 0.01 0.01 0.01 0.02 0.03 0.04 0.06 0.08 0.10 0.12 0.15 0.19 0.29 0.51 0.65 0.74 0.78 0.77 0.71 0.69 0.70 0.71 0.79 0.79 0.81 0.86 0.87 0.81 0.80 0.81 0.81 0.85 0.82 0.83 0.86 0.82 0.79 0.73
0.22 0.29 0.25 0.14 0.04 0.01 0.01 0.01 0.01 0.02 0.02 0.02 0.02 0.02 0.02 0.03 0.04 0.06 0.09 0.11 0.13 0.18 0.24 0.33 0.52 0.67 0.75 0.82 0.87 0.84 0.79 0.77 0.79 0.85 0.90 0.91 0.89 0.89 0.87 0.81 0.73 0.73 0.76 0.76 0.75 0.76 0.74 0.76 0.74
0.32 0.31 0.24 0.11 0.03 0.02 0.02 0.01 0.01 0.03 0.03 0.02 0.03 0.03 0.05 0.05 0.05 0.08 0.10 0.13 0.16 0.22 0.28 0.37 0.56 0.70 0.76 0.84 0.91 0.89 0.88 0.88 0.88 0.92 0.97 0.99 0.97 0.92 0.88 0.82 0.75 0.67 0.64 0.68 0.71 0.72 0.72 0.78 0.75
0.42 0.32 0.16 0.06 0.02 0.01 0.02 0.02 0.02 0.03 0.03 0.04 0.06 0.07 0.08 0.09 0.10 0.14 0.15 0.18 0.20 0.24 0.29 0.39 0.63 0.77 0.82 0.89 0.96 0.96 0.97 0.99 0.98 1.00 1.07 1.08 1.04 0.98 0.88 0.80 0.75 0.72 0.65 0.63 0.66 0.69 0.76 0.80 0.73
0.43 0.29 0.12 0.03 0.02 0.01 0.01 0.02 0.03 0.04 0.05 0.06 0.09 0.10 0.09 0.13 0.16 0.18 0.20 0.22 0.26 0.32 0.37 0.44 0.59 0.75 0.87 0.98 1.03 1.03 1.07 1.11 1.10 1.10 1.16 1.13 1.03 1.02 0.97 0.92 0.84 0.78 0.72 0.69 0.65 0.65 0.72 0.76 0.73
0.44 0.37 0.16 0.05 0.03 0.03 0.02 0.02 0.04 0.06 0.06 0.06 0.08 0.11 0.12 0.13 0.18 0.23 0.31 0.35 0.37 0.42 0.48 0.55 0.63 0.73 0.86 0.99 1.01 1.05 1.12 1.21 1.22 1.23 1.09 0.96 0.97 1.02 0.96 0.87 0.85 0.76 0.71 0.70 0.66 0.62 0.63 0.63 0.63
0.58 0.53 0.23 0.07 0.05 0.04 0.02 0.03 0.04 0.05 0.07 0.08 0.08 0.11 0.14 0.16 0.22 0.32 0.46 0.56 0.59 0.59 0.60 0.67 0.77 0.86 0.96 1.04 0.98 1.05 1.16 1.20 1.18 1.16 1.00 0.90 0.93 0.90 0.86 0.70 0.67 0.73 0.71 0.69 0.70 0.70 0.63 0.55 0.48
0.74 0.55 0.21 0.08 0.06 0.06 0.05 0.05 0.06 0.07 0.09 0.10 0.09 0.11 0.17 0.24 0.34 0.42 0.50 0.60 0.67 0.71 0.70 0.76 0.88 1.03 1.13 1.09 1.09 1.17 1.22 1.18 1.08 1.02 0.99 0.97 0.99 0.91 0.82 0.71 0.63 0.68 0.69 0.71 0.76 0.75 0.69 0.61 0.49
0.69 0.49 0.22 0.10 0.09 0.11 0.10 0.09 0.07 0.08 0.10 0.12 0.14 0.13 0.19 0.31 0.41 0.47 0.54 0.66 0.71 0.81 0.82 0.83 0.99 1.13 1.26 1.28 1.20 1.22 1.29 1.33 1.27 1.17 1.14 1.11 1.15 1.08 0.95 0.80 0.70 0.72 0.69 0.72 0.73 0.73 0.69 0.67 0.65
0.62 0.41 0.27 0.16 0.12 0.15 0.16 0.13 0.11 0.10 0.11 0.12 0.18 0.19 0.22 0.29 0.37 0.46 0.56 0.67 0.81 0.92 0.97 0.95 1.03 1.25 1.40 1.42 1.33 1.30 1.28 1.28 1.30 1.29 1.30 1.27 1.21 1.07 0.92 0.79 0.68 0.65 0.64 0.67 0.70 0.70 0.66 0.68 0.70
0.58 0.38 0.27 0.22 0.18 0.17 0.20 0.19 0.15 0.14 0.10 0.12 0.22 0.27 0.31 0.34 0.42 0.47 0.58 0.71 0.77 0.87 0.98 1.05 1.09 1.25 1.47 1.57 1.47 1.41 1.33 1.23 1.27 1.39 1.44 1.34 1.25 1.12 0.99 0.88 0.79 0.71 0.64 0.63 0.68 0.71 0.71 0.70 0.73
0.55 0.43 0.33 0.28 0.26 0.24 0.26 0.23 0.19 0.17 0.14 0.18 0.27 0.31 0.38 0.42 0.49 0.53 0.59 0.64 0.70 0.81 0.96 1.09 1.17 1.26 1.44 1.56 1.57 1.47 1.43 1.39 1.39 1.40 1.43 1.42 1.34 1.24 1.14 1.04 0.98 0.89 0.78 0.72 0.75 0.80 0.81 0.77 0.74
0.54 0.59 0.50 0.37 0.33 0.33 0.34 0.37 0.25 0.18 0.18 0.25 0.30 0.33 0.39 0.46 0.52 0.58 0.62 0.65 0.67 0.81 0.98 1.12 1.27 1.34 1.43 1.55 1.64 1.67 1.60 1.52 1.42 1.34 1.34 1.35 1.35 1.30 1.17 1.08 1.03 0.99 0.97 0.92 0.87 0.84 0.91 0.87 0.79
0.80 0.91 0.77 0.45 0.34 0.39 0.50 0.49 0.24 0.22 0.24 0.30 0.33 0.38 0.41 0.43 0.50 0.59 0.67 0.77 0.84 0.94 1.04 1.15 1.33 1.41 1.46 1.52 1.66 1.76 1.76 1.68 1.53 1.39 1.37 1.32 1.33 1.37 1.33 1.19 1.09 1.07 1.08 1.08 1.05 0.93 0.90 0.90 0.89
1.18 1.06 0.69 0.41 0.33 0.43 0.53 0.47 0.28 0.25 0.30 0.33 0.35 0.42 0.45 0.49 0.54 0.59 0.67 0.77 0.87 0.97 1.07 1.21 1.32 1.42 1.47 1.50 1.68 1.78 1.80 1.75 1.66 1.55 1.40 1.35 1.36 1.33 1.32 1.26 1.21 1.23 1.22 1.15 1.13 1.06 1.02 0.97 0.94
0.95 0.72 0.55 0.43 0.36 0.41 0.46 0.37 0.30 0.29 0.31 0.32 0.35 0.39 0.44 0.47 0.50 0.58 0.71 0.82 0.96 1.06 1.12 1.23 1.34 1.47 1.59 1.73 1.81 1.95 1.93 1.83 1.77 1.68 1.54 1.38 1.35 1.36 1.38 1.31 1.27 1.28 1.28 1.26 1.29 1.25 1.15 1.09 1.09
0.65 0.61 0.52 0.40 0.34 0.43 0.44 0.35 0.32 0.33 0.33 0.33 0.36 0.37 0.42 0.45 0.47 0.53 0.67 0.83 1.01 1.10 1.19 1.26 1.34 1.46 1.59 1.67 1.65 1.73 1.79 1.78 1.79 1.73 1.65 1.58 1.50 1.47 1.50 1.40 1.32 1.30 1.24 1.15 1.12 1.23 1.27 1.21 1.18
0.81 0.79 0.58 0.43 0.36 0.45 0.45 0.38 0.34 0.38 0.38 0.35 0.36 0.38 0.43 0.43 0.47 0.54 0.63 0.79 1.01 1.10 1.19 1.29 1.31 1.44 1.51 1.47 1.53 1.59 1.69 1.78 1.85 1.85 1.80 1.68 1.56 1.55 1.63 1.63 1.50 1.34 1.26 1.19 1.08 1.06 1.16 1.18 1.16
0.89 0.72 0.54 0.53 0.54 0.56 0.57 0.50 0.35 0.39 0.39 0.35 0.33 0.35 0.40 0.41 0.44 0.51 0.61 0.73 0.87 0.99 1.11 1.26 1.26 1.30 1.47 1.55 1.73 1.86 1.95 2.01 2.02 1.94 1.88 1.76 1.60 1.46 1.44 1.55 1.65 1.58 1.41 1.26 1.15 1.10 1.07 1.11 1.09
0.87 0.50 0.52 0.64 0.90 1.02 0.80 0.85 0.41 0.39 0.44 0.38 0.35 0.36 0.37 0.39 0.43 0.50 0.54 0.66 0.79 0.85 1.03 1.18 1.23 1.24 1.40 1.59 1.67 1.70 1.68 1.72 1.67 1.67 1.68 1.67 1.61 1.52 1.46 1.50 1.56 1.60 1.50 1.36 1.28 1.21 1.13 1.11 1.13
0.68 0.53 0.68 0.84 1.07 1.23 0.88 0.92 0.52 0.39 0.47 0.44 0.37 0.38 0.35 0.33 0.37 0.47 0.54 0.61 0.73 0.85 1.04 1.15 1.18 1.27 1.38 1.53 1.62 1.66 1.64 1.60 1.67 1.73 1.72 1.74 1.64 1.56 1.51 1.53 1.56 1.55 1.47 1.37 1.31 1.23 1.18 1.13 1.10
0.71 0.85 1.02 1.21 1.73 1.90 0.79 0.69 0.56 0.42 0.43 0.41 0.37 0.39 0.34 0.31 0.34 0.44 0.56 0.63 0.73 0.87 1.01 1.18 1.26 1.30 1.40 1.54 1.67 1.66 1.63 1.68 1.76 1.75 1.80 1.84 1.80 1.68 1.58 1.54 1.55 1.50 1.42 1.35 1.30 1.26 1.21 1.15 1.09
1.16 1.68 2.45 2.57 2.56 1.50 0.44 0.45 0.48 0.33 0.30 0.31 0.34 0.37 0.34 0.31 0.34 0.44 0.55 0.68 0.77 0.85 0.95 1.15 1.32 1.30 1.28 1.42 1.58 1.60 1.62 1.74 1.74 1.76 1.76 1.83 1.81 1.69 1.58 1.50 1.50 1.50 1.45 1.37 1.32 1.30 1.27 1.25 1.23
1.16 1.47 1.96 1.82 1.19 0.59 0.37 0.45 0.40 0.24 0.20 0.21 0.24 0.30 0.29 0.32 0.36 0.44 0.51 0.62 0.75 0.83 0.92 1.07 1.26 1.28 1.23 1.27 1.38 1.51 1.60 1.75 1.82 1.89 1.87 1.84 1.78 1.69 1.63 1.61 1.59 1.54 1.52 1.52 1.46 1.36 1.30 1.31 1.30
1.02 1.11 1.03 1.38 0.98 0.60 0.46 0.37 0.29 0.18 0.17 0.18 0.21 0.26 0.26 0.28 0.33 0.43 0.47 0.55 0.71 0.83 0.88 0.91 1.14 1.22 1.21 1.25 1.31 1.42 1.51 1.57 1.60 1.73 1.84 1.84 1.77 1.69 1.66 1.62 1.64 1.62 1.64 1.70 1.72 1.60 1.43 1.38 1.31
0.83 1.00 1.31 1.90 1.61 0.85 0.45 0.31 0.31 0.25 0.23 0.20 0.21 0.25 0.27 0.31 0.35 0.44 0.48 0.53 0.65 0.80 0.85 0.82 0.99 1.12 1.11 1.19 1.27 1.34 1.43 1.49 1.49 1.55 1.60 1.66 1.73 1.71 1.69 1.66 1.58 1.55 1.58 1.69 1.80 1.75 1.58 1.50 1.40
0.92 1.22 1.59 1.73 1.34 0.98 0.62 0.44 0.36 0.32 0.30 0.26 0.25 0.28 0.31 0.37 0.42 0.50 0.53 0.58 0.65 0.77 0.82 0.83 0.89 1.09 1.16 1.16 1.20 1.25 1.33 1.45 1.53 1.55 1.50 1.46 1.56 1.70 1.69 1.64 1.60 1.55 1.55 1.60 1.70 1.73 1.72 1.65 1.53
0.83 1.00 1.24 1.69 1.31 0.81 0.69 0.47 0.29 0.29 0.29 0.28 0.31 0.30 0.32 0.34 0.39 0.46 0.52 0.60 0.70 0.83 0.87 0.84 0.88 1.02 1.20 1.25 1.18 1.20 1.28 1.39 1.49 1.50 1.47 1.44 1.39 1.43 1.57 1.65 1.67 1.62 1.53 1.56 1.68 1.70 1.72 1.74 1.66